sat.trackr.live / text

‹ back to catalog

STARLINK-36353

NORAD 67820 · 2026-032Z

PAYLOAD ACTIVE UNKNOWN

§ Identity

Operator
Country
US
Launch date
2026-02-15
Launch site
AFWTR
Launch vehicle
Mass (kg)
RCS (m²)

Purposes: comms

External: N2YO · Heavens-Above · Gunter

§ Orbital elements

Epoch: 2026-05-25T01:08:50.752896Z

Period
93.91 min
Inclination
97.2877°
Eccentricity
0.0002057
Mean motion
15.33443634 rev/d
Perigee alt
464.1 km
Apogee alt
467.0 km
Semi-major
6,843.7 km
B*
4.1960e-4
RAAN
333.1581°
Arg perigee
92.9253°
Mean anomaly
267.2225°
Rev number
1,666

§ Raw data

STARLINK-363531 67820U 26032Z   26145.04780964  .00013495  00000+0  41960-3 0  99962 67820  97.2877 333.1581 0002057  92.9253 267.2225 15.33443634 16664

JSON: /api/v1/satellites/67820 · /tle

For live sub-satellite position, see the globe view (requires WebGL).

§ Visibility from observer

Set your observer location to see the next 7 days of passes ≥ 10°. The values pass through the URL so the page stays shareable.

No JS? Fill the form by hand. The geolocation button needs JavaScript.